Location: Newark
(43.4306°N, 0.3089°E)
Time: 00:28:36
(UTC+00:00)

A-11 Canister half - All Passes

Search period start: 25 August 2019 00:00
Search period end: 04 September 2019 00:00
Orbit: 1526 x 1683 km, 47.3° (Epoch: 23 August)

Date Brightness Start Highest point End Pass type
(mag) Time Alt. Az. Time Alt. Az. Time Alt. Az.
25 Aug - 09:34:19 10° SSW 09:42:52 36° SE 09:51:39 10° ENE daylight
25 Aug - 11:37:12 10° WSW 11:47:10 84° SSE 11:57:22 10° ENE daylight
25 Aug - 13:42:45 10° W 13:52:51 72° N 14:03:02 10° E daylight
25 Aug - 15:48:26 10° WNW 15:58:39 90° N 16:08:49 10° ESE daylight
25 Aug - 17:53:57 10° WNW 18:03:15 42° SW 18:12:24 10° SSE daylight
26 Aug - 09:12:54 10° SSW 09:21:18 34° SE 09:29:54 10° ENE daylight
26 Aug - 11:15:35 10° WSW 11:25:30 82° SSE 11:35:42 10° ENE daylight
26 Aug - 13:21:04 10° W 13:31:08 72° N 13:41:20 10° E daylight
26 Aug - 15:26:45 10° WNW 15:36:59 88° NNE 15:47:10 10° ESE daylight
26 Aug - 17:32:14 10° WNW 17:41:38 44° SW 17:50:55 10° SSE daylight
26 Aug - 19:42:39 10° WSW 19:44:41 11° WSW 19:46:43 10° SW visible
27 Aug - 08:51:30 10° S 08:59:44 32° SE 09:08:09 10° ENE daylight
27 Aug - 10:53:58 10° WSW 11:03:51 79° SSE 11:14:01 10° ENE daylight
27 Aug - 12:59:23 10° W 13:09:26 72° N 13:19:39 10° E daylight
27 Aug - 15:05:05 10° WNW 15:15:18 86° NNE 15:25:30 10° ESE daylight
27 Aug - 17:10:33 10° WNW 17:20:02 46° SW 17:29:24 10° SSE daylight
27 Aug - 19:19:57 10° W 19:23:08 12° WSW 19:26:21 10° SW visible
28 Aug - 08:30:07 10° S 08:38:09 30° SE 08:46:23 10° ENE daylight
28 Aug - 10:32:22 10° SW 10:42:12 77° SSE 10:52:20 10° ENE daylight
28 Aug - 12:37:42 10° W 12:47:44 72° N 12:57:56 10° E daylight
28 Aug - 14:43:25 10° WNW 14:53:37 85° NNE 15:03:49 10° ESE daylight
28 Aug - 16:48:51 10° WNW 16:58:25 48° SW 17:07:54 10° SSE daylight
28 Aug - 18:57:36 10° W 19:01:37 13° WSW 19:05:37 10° SW daylight
29 Aug - 08:08:45 10° S 08:16:35 29° SE 08:24:37 10° ENE daylight
29 Aug - 10:10:47 10° SW 10:20:33 75° SSE 10:30:39 10° ENE daylight
29 Aug - 12:16:02 10° W 12:26:02 73° N 12:36:15 10° E daylight
29 Aug - 14:21:45 10° WNW 14:31:56 83° NNE 14:42:09 10° ESE daylight
29 Aug - 16:27:09 10° WNW 16:36:48 51° SW 16:46:23 10° SSE daylight
29 Aug - 18:35:25 10° W 18:40:04 14° WSW 18:44:44 10° SSW daylight
30 Aug - 07:47:25 10° S 07:55:02 27° SE 08:02:49 10° ENE daylight
30 Aug - 09:49:11 10° SW 09:58:55 73° SSE 10:08:58 10° ENE daylight
30 Aug - 11:54:21 10° W 12:04:20 73° N 12:14:33 10° ENE daylight
30 Aug - 14:00:05 10° WNW 14:10:15 82° NNE 14:20:28 10° ESE daylight
30 Aug - 16:05:29 10° WNW 16:15:11 53° SW 16:24:50 10° SSE daylight
30 Aug - 18:13:20 10° W 18:18:32 15° WSW 18:23:44 10° SSW daylight
31 Aug - 07:26:05 10° S 07:33:28 25° SE 07:41:02 10° ENE daylight
31 Aug - 09:27:36 10° SW 09:37:17 71° SSE 09:47:17 10° ENE daylight
31 Aug - 11:32:41 10° W 11:42:39 74° N 11:52:51 10° ENE daylight
31 Aug - 13:38:26 10° WNW 13:48:34 81° NNE 13:58:47 10° ESE daylight
31 Aug - 15:43:48 10° WNW 15:53:34 55° SW 16:03:17 10° SE daylight
31 Aug - 17:51:18 10° W 17:56:59 17° WSW 18:02:39 10° SSW daylight
01 Sep - 07:04:47 10° S 07:11:55 24° SE 07:19:13 10° E daylight
01 Sep - 09:06:02 10° SW 09:15:39 68° SSE 09:25:37 10° ENE daylight
01 Sep - 11:11:01 10° W 11:20:57 74° N 11:31:09 10° ENE daylight
01 Sep - 13:16:45 10° WNW 13:26:52 79° NNE 13:37:06 10° ESE daylight
01 Sep - 15:22:07 10° WNW 15:31:56 57° SW 15:41:44 10° SE daylight
01 Sep - 17:29:21 10° W 17:35:26 18° SW 17:41:31 10° SSW daylight
02 Sep - 06:43:30 10° S 06:50:23 22° SE 06:57:23 10° E daylight
02 Sep - 08:44:28 10° SW 08:54:02 66° SE 09:03:55 10° ENE daylight
02 Sep - 10:49:21 10° W 10:59:16 75° N 11:09:27 10° ENE daylight
02 Sep - 12:55:06 10° WNW 13:05:11 78° NNE 13:15:25 10° ESE daylight
02 Sep - 15:00:27 10° WNW 15:10:18 59° SW 15:20:10 10° SE daylight
02 Sep - 17:07:26 10° W 17:13:53 19° SW 17:20:19 10° SSW daylight
03 Sep - 06:22:16 10° S 06:28:50 21° SE 06:35:32 10° E daylight
03 Sep - 08:22:55 10° SW 08:32:24 63° SE 08:42:14 10° ENE daylight
03 Sep - 10:27:41 10° W 10:37:35 76° NNW 10:47:45 10° ENE daylight
03 Sep - 12:33:26 10° WNW 12:43:30 77° NNE 12:53:42 10° E daylight
03 Sep - 14:38:47 10° WNW 14:48:40 62° SW 14:58:35 10° SE daylight
03 Sep - 16:45:33 10° W 16:52:19 21° SW 16:59:06 10° SSW daylight
